EW9168 Weather Reports


Display with metric or nautical units.
time (UTC)temp
F
wind
direction
speed
MPH
gust
MPH
rain 1hr
in
rain 24hr
in
rain mn
in
humidity
%
barometer
mb
20260502152020 44 113 5.0 10.0 0.00 0.10 0.10 91 1010.4
20260502151020 44 113 5.0 10.0 0.00 0.10 0.10 90 1010.5
20260502123020 41 90 3.0 7.0 0.00 0.10 0.10 93 1011.1
20260502122041 41 90 3.0 8.0 0.00 0.10 0.10 93 1010.9
20260502121016 41 113 2.0 8.0 0.00 0.10 0.10 93 1011.0
20260502115022 41 0.0 3.0 0.00 0.10 0.10 93 1011.1
20260502114020 41 0.0 3.0 0.01 0.10 0.10 93 1011.2
20260502113020 40 90 1.0 5.0 0.01 0.10 0.10 93 1011.3
20260502112021 40 113 1.0 5.0 0.01 0.10 0.10 93 1011.3
20260502111100 40 113 3.0 7.0 0.02 0.10 0.10 94 1011.1
20260502110017 40 135 3.0 8.0 0.02 0.10 0.10 94 1010.9
20260502105041 40 90 2.0 8.0 0.03 0.10 0.10 96 1011.0
20260502104020 40 0.0 3.0 0.02 0.09 0.09 96 1011.0
20260502103100 40 0.0 3.0 0.02 0.09 0.09 96 1011.2
20260502102020 40 0.0 0.0 0.03 0.09 0.09 96 1011.2
20260502101020 39 0.0 0.0 0.02 0.08 0.08 96 1011.1
20260502091020 39 0.0 0.0 0.02 0.06 0.06 95 1011.3
20260502071020 40 68 1.0 5.0 0.01 0.01 0.01 88 1011.3
20260502070021 40 0.0 1.0 0.01 0.01 0.01 90 1011.5
20260502065018 40 0.0 1.0 0.01 0.01 0.01 90 1011.8
20260502064020 39 0.0 0.0 0.01 0.01 0.01 88 1011.6
20260502063016 39 0.0 0.0 0.01 0.01 0.01 84 1011.6
20260502062020 39 0.0 0.0 0.00 0.00 0.00 83 1011.7
20260502061040 38 0.0 0.0 0.00 0.00 0.00 79 1011.7
20260502060101 39 0.0 2.0 0.00 0.00 0.00 82 1011.8
20260502055020 39 0.0 3.0 0.00 0.00 0.00 77 1011.4
20260502054020 38 0.0 3.0 0.00 0.00 0.00 78 1011.3
20260502053020 38 0.0 0.0 0.00 0.00 0.00 83 1011.2
20260502052016 37 0.0 0.0 0.00 0.00 0.00 78 1011.1
20260502051020 37 0.0 0.0 0.00 0.00 0.00 80 1011.1
20260502050020 37 0.0 0.0 0.00 0.00 0.00 78 1010.9
20260502045020 37 0.0 0.0 0.00 0.00 0.00 78 1010.9
20260502044040 37 0.0 0.0 0.00 0.00 0.00 76 1010.9
20260502043020 37 0.0 0.0 0.00 0.00 0.00 77 1010.9
20260502042020 38 0.0 0.0 0.00 0.00 0.00 77 1011.0
20260502041016 38 0.0 0.0 0.00 0.00 0.00 75 1010.9
20260502040020 38 0.0 0.0 0.00 0.00 0.00 72 1010.9
20260502035020 39 0.0 0.0 0.00 0.00 0.00 74 1010.8
20260502034040 39 0.0 0.0 0.00 0.00 0.00 73 1010.7
20260502033020 40 0.0 0.0 0.00 0.00 0.00 72 1010.8
20260502032016 40 0.0 0.0 0.00 0.00 0.00 67 1010.7
20260502031016 40 0.0 0.0 0.00 0.00 0.00 69 1010.6
20260502030020 39 0.0 0.0 0.00 0.00 0.00 68 1010.5
20260502025020 39 0.0 0.0 0.00 0.00 0.00 71 1010.5
20260502024020 40 0.0 0.0 0.00 0.00 0.00 70 1010.5
20260502023020 41 0.0 0.0 0.00 0.00 0.00 69 1010.5
20260502022020 41 0.0 0.0 0.00 0.00 0.00 65 1010.6
20260502021016 41 0.0 0.0 0.00 0.00 0.00 65 1010.6
20260502020016 41 0.0 0.0 0.00 0.01 0.00 65 1010.6
20260502015020 41 0.0 0.0 0.00 0.01 0.00 66 1010.6
20260502014020 42 0.0 0.0 0.00 0.02 0.00 65 1010.6
20260502013020 42 0.0 0.0 0.00 0.02 0.00 63 1010.5
20260502012020 43 0.0 0.0 0.00 0.02 0.00 63 1010.4
20260502011020 43 0.0 0.0 0.00 0.02 0.00 63 1010.3
20260502010056 44 0.0 0.0 0.00 0.02 0.00 65 1010.4
20260502005020 44 0.0 0.0 0.00 0.03 0.00 60 1010.3
20260502004020 45 0.0 0.0 0.00 0.03 0.00 63 1010.2
20260502003020 46 0.0 0.0 0.00 0.03 0.00 59 1010.2
20260502002041 46 0.0 0.0 0.00 0.03 0.00 56 1010.0
20260502001018 47 0.0 0.0 0.00 0.03 0.00 55 1009.9
20260502000020 48 0.0 0.0 0.00 0.04 0.00 56 1009.8
20260501235016 48 0.0 0.0 0.00 0.05 0.00 59 1009.7
20260501234020 50 0.0 0.0 0.00 0.06 0.00 57 1009.5
20260501233020 51 0.0 0.0 0.00 0.06 0.00 57 1009.4
20260501232041 53 0.0 0.0 0.00 0.07 0.00 50 1009.3
20260501231040 53 0.0 0.0 0.00 0.08 0.00 43 1009.2
20260501230020 53 0.0 0.0 0.00 0.08 0.00 44 1009.1
20260501225040 54 0.0 0.0 0.00 0.08 0.00 42 1009.0
20260501224016 54 293 1.0 5.0 0.00 0.08 0.00 42 1008.9
20260501223020 55 293 1.0 4.0 0.00 0.08 0.00 40 1009.0
20260501222020 55 270 1.0 4.0 0.00 0.08 0.00 41 1008.9
20260501221020 55 0.0 5.0 0.00 0.08 0.00 41 1008.9
20260501220020 55 293 1.0 4.0 0.00 0.08 0.00 40 1008.9
20260501215020 55 293 1.0 5.0 0.00 0.08 0.00 40 1009.0
20260501214016 56 293 3.0 9.0 0.00 0.08 0.00 38 1008.9
20260501213036 56 293 2.0 6.0 0.00 0.08 0.00 38 1008.9
20260501212020 57 270 2.0 6.0 0.00 0.08 0.00 38 1008.8
20260501211020 57 293 2.0 6.0 0.00 0.08 0.00 37 1008.8
20260501210020 57 315 2.0 7.0 0.00 0.08 0.00 40 1008.6
20260501205022 57 315 1.0 4.0 0.00 0.08 0.00 36 1008.5
20260501204020 56 293 1.0 7.0 0.00 0.08 0.00 42 1008.6
20260501203016 55 338 1.0 5.0 0.00 0.09 0.00 40 1008.6
20260501202016 55 293 1.0 6.0 0.00 0.09 0.00 40 1008.7
20260501201020 58 293 2.0 7.0 0.00 0.10 0.00 37 1008.8
20260501200020 58 270 3.0 7.0 0.00 0.11 0.00 40 1008.8
20260501195020 57 338 1.0 7.0 0.00 0.12 0.00 37 1008.7
20260501194020 58 293 2.0 10.0 0.00 0.12 0.00 36 1008.8
20260501193040 58 270 1.0 5.0 0.00 0.12 0.00 43 1008.9
20260501192037 58 270 3.0 8.0 0.00 0.12 0.00 37 1008.9
20260501191020 57 293 3.0 7.0 0.00 0.12 0.00 40 1009.1
20260501190020 57 270 2.0 6.0 0.00 0.12 0.00 41 1009.3
20260501185020 56 0.0 3.0 0.00 0.12 0.00 42 1009.2
20260501184020 55 338 1.0 6.0 0.00 0.12 0.00 43 1009.2
20260501183100 56 338 2.0 5.0 0.00 0.12 0.00 44 1009.4
20260501182021 57 293 3.0 8.0 0.00 0.12 0.00 40 1009.3
20260501181016 57 293 3.0 7.0 0.00 0.12 0.00 43 1009.4
20260501180040 56 293 2.0 6.0 0.00 0.12 0.00 44 1009.3
20260501175021 56 293 2.0 6.0 0.00 0.12 0.00 47 1009.3
20260501174020 56 270 3.0 9.0 0.00 0.12 0.00 44 1009.3
20260501173020 56 315 2.0 10.0 0.00 0.12 0.00 47 1009.3
20260501172100 55 293 3.0 10.0 0.00 0.12 0.00 46 1009.3
20260501171036 55 293 4.0 9.0 0.00 0.12 0.00 45 1009.3
20260501170016 55 293 3.0 8.0 0.00 0.12 0.00 48 1009.5
20260501165020 54 293 3.0 8.0 0.00 0.12 0.00 50 1009.6
20260501164020 53 270 3.0 8.0 0.00 0.12 0.00 52 1009.5
20260501163020 52 293 2.0 6.0 0.00 0.12 0.00 56 1009.5
20260501162040 53 315 2.0 7.0 0.00 0.12 0.00 61 1009.5
20260501161020 53 293 3.0 7.0 0.00 0.12 0.00 54 1009.7
20260501160036 52 293 3.0 8.0 0.00 0.12 0.00 54 1009.8
20260501155017 52 315 2.0 6.0 0.00 0.12 0.00 57 1009.8
20260501154040 51 293 3.0 8.0 0.00 0.12 0.00 61 1009.9
20260501153020 51 293 2.0 5.0 0.00 0.12 0.00 61 1009.9